Regional Weather Roundup
Issued by NWS Grand Forks, ND

Home | Current Version | Previous Version | Graphics & Text | Print | Product List | Glossary On
Versions: 1 2 3 4 5 6 7 8 9 10 11 12 13 14 15 16 17 18 19 20 21 22 23 24 25 26 27 28 29 30 31 32 33 34 35 36 37 38 39 40 41 42 43 44 45 46 47 48 49 50
000
ASUS43 KFGF 141831
RWRFGF
PRAIRIE TO PINES  WEATHER ROUNDUP
NATIONAL WEATHER SERVICE EASTERN NORTH DAKOTA/GRAND FORKS ND
1200 PM CST SUN FEB 14 2016

 **SATELLITE DATA USED TO AUGMENT SKY COVER AT AUTOMATED STATIONS**
 *****  WEATHER ACROSS EASTERN NORTH DAKOTA  *****

CITY           SKY/WX    TMP DP  RH WIND       PRES   REMARKS
GRAND FORKS    LGT SNOW  17  12  80 S21       29.77F VSB 1   WCI   0
6HR MIN TEMP:  14; 6HR MAX TEMP:  17; 6HR PCP:  0.03;

GRAND FRKS AFB CLOUDY    16  12  86 S16       29.74F HAZE    WCI   0
DEVILS LAKE    CLOUDY    20  16  84 W10       29.69S WCI   9
6HR MIN TEMP:  14; 6HR MAX TEMP:  20; 6HR PCP: TRACE;

FARGO          LGT SNOW  16  11  80 S18G25    29.81F WCI   0
WAHPETON ARPT  CLOUDY    18  12  79 S16       29.83F WCI   3
$$

 ***** WEATHER ACROSS CENTRAL AND WESTERN NORTH DAKOTA  *****

CITY           SKY/WX    TMP DP  RH WIND       PRES   REMARKS
BISMARCK       CLOUDY    39  30  70 W3        29.73S
6HR MIN TEMP:  24; 6HR MAX TEMP:  39; 6HR PCP: TRACE;

MINOT          CLOUDY    33  25  72 W17       29.68S WCI  22
6HR MIN TEMP:  25; 6HR MAX TEMP:  33;

JAMESTOWN      CLOUDY    22  19  89 S8        29.70S WCI  12
6HR MIN TEMP:  14; 6HR MAX TEMP:  22; 6HR PCP: TRACE;

MINOT AFB      CLOUDY    32  31  96 NW17      29.67F WCI  21
GARRISON         N/A     33  28  81 NW15      29.70R WCI  23
WILLISTON      MOSUNNY   31  25  78 W3        29.72S
6HR MIN TEMP:  17; 6HR MAX TEMP:  31;

DICKINSON      PTSUNNY   36  27  69 W13       29.70R
6HR MIN TEMP:  21; 6HR MAX TEMP:  36;

HETTINGER      CLOUDY    38  28  67 W18       29.74S
6HR MIN TEMP:  22; 6HR MAX TEMP:  38;

$$

 *****  OTHER AIRPORT OBSERVATIONS IN OUR AREA  *****

CITY           SKY/WX    TMP DP  RH WIND       PRES   REMARKS
WALHALLA         N/A     18  16  93 S9        29.72F WCI   6
GRAFTON AIRPOR CLOUDY    16  14  93 S16G23    29.77F FOG     WCI   0
VALLEY CITY AR CLOUDY    16  16 100 S15       29.74S WCI   1
CANDO          CLOUDY    19  16  86 W12       29.70S WCI   7
CAVALIER APRT  CLOUDY    16  12  86 S14       29.74F FOG     WCI   1
GWINNER        CLOUDY    19  18  93 S16       29.77F WCI   5
SHEYENNE NWR     N/A     17  12  79 S14       29.95S WCI   3
ROLLA          CLOUDY    19  16  86 N7        29.66S WCI  10
 ***** THE ABOVE OBSERVATIONS ARE NON NWS ARE NOT QUALITY
       CONTROLLED AND MAY MIS-REPORT RAIN FOR SNOW...
$$

  *****  WEATHER ACROSS NORTHERN MINNESOTA  *****

CITY           SKY/WX    TMP DP  RH WIND       PRES   REMARKS
FLAG ISLAND    LGT SNOW  12   9  85 S20       29.80F VSB 1   WCI  -6
WARROAD        LGT SNOW  12   9  85 S9        29.80F WCI   0
ROSEAU         LGT SNOW  16   9  73 S16       29.79F WCI   0
HALLOCK        LGT SNOW  18  14  86 S21       29.76F VSB 3/4 WCI   1
THF RVR FALLS  CLOUDY    16   9  73 S18       29.79F WCI  -1
6HR MIN TEMP:  10; 6HR MAX TEMP:  14;

BAUDETTE       LGT SNOW  12   5  73 S14       29.82F VSB 1   WCI  -3
6HR MIN TEMP:   5; 6HR MAX TEMP:  12; 6HR PCP: TRACE;

WASKISH        LGT SNOW  10   7  85 SE7       29.83F VSB 3/4 WCI   0
CROOKSTON      LGT SNOW  16  12  86 S24       29.80F VSB 3/4 WCI  -3
STEPHEN NDAWN    N/A     16  12  86 S20         N/A  WCI  -1
GREENBUSH NDAW   N/A     14  10  85 S16         N/A  WCI  -2
$$
  *****  WEATHER ACROSS CENTRAL AND WEST MINNESOTA  *****

CITY           SKY/WX    TMP DP  RH WIND       PRES   REMARKS
FOSSTON          N/A     14   9  79 S14       29.79F HAZE    WCI  -1
BEMIDJI        LGT SNOW  10   6  82 SE12      29.82F WCI  -4
PARK RAPIDS    LGT SNOW  14   7  73 S17       29.82F WCI  -3
6HR MIN TEMP:   9; 6HR MAX TEMP:  13; 6HR PCP: TRACE;

ELBOW LAKE     CLOUDY    15  12  88 S17       29.84F FOG     WCI  -1
6HR MIN TEMP:  11; 6HR MAX TEMP:  15;

WADENA         LGT SNOW  12   9  85 S16G22    29.83F WCI  -4
DETROIT LAKES  LGT SNOW  16  12  86 S15       29.81F WCI   1
MOORHEAD       MIX PCPN  16  10  79 S18       29.82F WCI  -1
FERGUS FALLS   CLOUDY    16  10  79 S21       29.87F FOG     WCI  -2
MORRIS MN      CLOUDY    18  14  86 S18       29.84F FOG     WCI   2
STAPLES        CLOUDY    12   7  79 S13G21    29.86F WCI  -3
$$
  *****  WEATHER ELSEWHERE ACROSS MINNESOTA  *****

CITY           SKY/WX    TMP DP  RH WIND       PRES   REMARKS
DULUTH         LGT SNOW  10   2  69 S12       29.96F WCI  -5
6HR MIN TEMP:   1; 6HR MAX TEMP:  10; 6HR PCP: TRACE;

INTRNTL FALLS  CLOUDY    11   1  64 S8        29.88F HAZE    WCI  -1
6HR MIN TEMP:   1; 6HR MAX TEMP:  11; 6HR PCP: TRACE;

ELY            CLOUDY    16   5  62 S9G16     29.93F WCI   4
CLOQUET        LGT SNOW  12   7  79 SE8       29.96F WCI   1
WHEATON        NOT AVBL
BRAINERD       LGT SNOW  13   7  77 S13G22    29.89F VSB 1   WCI  -2
6HR MIN TEMP:   6; 6HR MAX TEMP:  13; 6HR PCP: TRACE;

HIBBING        LGT SNOW  10   3  73 S12       29.92F WCI  -5
6HR MIN TEMP:  -5; 6HR MAX TEMP:   9; 6HR PCP: TRACE;

ALEXANDRIA     LGT SNOW  15  11  83 S17       29.84F VSB 1   WCI  -1
6HR MIN TEMP:  10; 6HR MAX TEMP:  15; 6HR PCP: TRACE;

SAINT CLOUD    CLOUDY    16   9  74 SE17G23   29.94F WCI   0
6HR MIN TEMP:  10; 6HR MAX TEMP:  16; 6HR PCP: TRACE;

MINNEAPOLIS    LGT SNOW  18  10  71 SE20      29.99F WCI   2
6HR MIN TEMP:  11; 6HR MAX TEMP:  18; 6HR PCP:  0.01;

$$

  *****  WEATHER ACROSS SOUTH DAKOTA  *****

CITY           SKY/WX    TMP DP  RH WIND       PRES   REMARKS
SIOUX FALLS    CLOUDY    19  14  81 S8        29.82F WCI   9
6HR MIN TEMP:  14; 6HR MAX TEMP:  19; 6HR PCP: TRACE;

BROOKINGS      FLURRIES  18  12  77 S14       29.80F WCI   4
WATERTOWN      CLOUDY    16  11  80 S15       29.77F WCI   1
6HR MIN TEMP:  12; 6HR MAX TEMP:  16; 6HR PCP: TRACE;

HURON          CLOUDY    20  16  84 S8        29.81F WCI  10
6HR MIN TEMP:  15; 6HR MAX TEMP:  20;

SISSETON         N/A     16  11  80 S16       29.80F WCI   1
ABERDEEN       CLOUDY    21  16  81 S13       29.78F WCI   9
6HR MIN TEMP:  16; 6HR MAX TEMP:  20; 6HR PCP:  0.01;

MITCHELL       CLOUDY    21  17  84 S7        29.84S WCI  12
PIERRE         PTSUNNY   37  30  75 W10       29.77F
6HR MIN TEMP:  27; 6HR MAX TEMP:  37; 6HR PCP: TRACE;

MOBRIDGE       CLOUDY    35  31  85 SW6       29.72F
RAPID CITY     CLOUDY    41  28  60 CALM      29.79F
6HR MIN TEMP:  26; 6HR MAX TEMP:  41;

$$

  *****  SOME WEATHER IN NEARBY STATES *****

CITY           SKY/WX    TMP DP  RH WIND       PRES   REMARKS
GLASGOW MT     CLOUDY    36  30  79 SE5       29.71F
6HR MIN TEMP:  29; 6HR MAX TEMP:  36;

GREAT FALLS MT SUNNY     47  24  40 W25G37    29.83R
6HR MIN TEMP:  35; 6HR MAX TEMP:  47;

CHEYENNE WY    CLOUDY    43  21  41 W23G41    29.90S
6HR MIN TEMP:  36; 6HR MAX TEMP:  44;

SCOTTSBLUFF NE PTSUNNY   49  24  37 W20G29    29.85F
6HR MIN TEMP:  25; 6HR MAX TEMP:  49;

OMAHA NE       CLOUDY    32  19  58 CALM      29.84F
6HR MIN TEMP:  22; 6HR MAX TEMP:  32;

DES MOINES IA  CLOUDY    22  15  75 SE16      29.92F WCI   8
6HR MIN TEMP:  17; 6HR MAX TEMP:  22; 6HR PCP:  0.12;

DAVENPORT IA   LGT SNOW  18  12  77 SE21      30.09F VSB 3/4 WCI   1
6HR MIN TEMP:  16; 6HR MAX TEMP:  18; 6HR PCP:  0.01;

CHICAGO IL     LGT SNOW  16  10  77 S15       30.22F VSB 3/4 WCI   1
6HR MIN TEMP:  13; 6HR MAX TEMP:  17; 6HR PCP: TRACE;

EAU CLAIRE WI  MOSUNNY   14   5  67 SE16      30.07F WCI  -2
6HR MIN TEMP:   2; 6HR MAX TEMP:  14; 6HR PCP: TRACE;

LA CROSSE WI   LGT SNOW  16   9  74 SE12      30.07F WCI   3
6HR MIN TEMP:  11; 6HR MAX TEMP:  15; 6HR PCP:  0.02;

$$

  *****  SOME NATIONAL WEATHER *****

CITY           SKY/WX    TMP DP  RH WIND       PRES   REMARKS
LA GUARDIA NY  FAIR      11 -12  35 NW10      30.51F WCI  -3
6HR MIN TEMP:   1; 6HR MAX TEMP:  11;

RALEIGH NC     PTSUNNY   30  -1  26 VRB6      30.51F WCI  24
6HR MIN TEMP:  15; 6HR MAX TEMP:  30;

ATLANTA GA     PTSUNNY   42  11  28 S15       30.29F
6HR MIN TEMP:  28; 6HR MAX TEMP:  43;

NEW ORLEANS LA PTSUNNY   69  48  47 S18G28    30.17F
6HR MIN TEMP:  48; 6HR MAX TEMP:  69;

OKLAHOMA CITY  CLOUDY    50  37  61 N13       29.97R
6HR MIN TEMP:  45; 6HR MAX TEMP:  51;

ALBUQUERQUE NM MOSUNNY   57  17  21 NW5       30.12F
6HR MIN TEMP:  34; 6HR MAX TEMP:  57;

SALT LAKE CITY CLOUDY    32  30  92 SE12      30.26S FOG     WCI  23
6HR MIN TEMP:  29; 6HR MAX TEMP:  32; 6HR PCP:  0.07;

LOS ANGELES CA MOSUNNY   59  57  94 CALM      30.06S FOG
6HR MIN TEMP:  48; 6HR C1F1C2F2C3F3C4F4C5F5C6F6C7F7C8F8C9F9CaFaCbFbCcFcCd!


USA.gov is the U.S. government's official web portal to all federal, state and local government web resources and services.